Regional Weather Roundup
Issued by NWS

Home | Current Version | Previous Version | Graphics & Text | Print | Product List | Glossary On
Versions: 1 2 3 4 5 6 7 8 9 10 11 12 13 14 15 16 17 18 19 20 21 22 23 24 25 26 27 28 29 30 31 32 33 34 35 36 37 38 39 40 41 42 43 44 45 46 47 48 49 50
000
ASUS45 KCYS 051710
RWRWY

WYOMING REGIONAL WEATHER ROUNDUP
NATIONAL WEATHER SERVICE CHEYENNE WY
1000 AM MST THU MAR 05 2015

NOTE:  "FAIR" INDICATES FEW OR NO CLOUDS BELOW 12,000 FEET
WITH NO SIGNIFICANT WEATHER AND/OR OBSTRUCTIONS TO VISIBILITY.

WYZ001-051800-
YELLOWSTONE NATIONAL PARK

CITY           SKY/WX    TMP DP  RH WIND       PRES   REMARKS
LK YELLOWSTONE   N/A      8   0  69 SE3       30.32R
W YELLOWSTONE  NOT AVBL

$$
WYZ002>013-054>058-071-098>099-051800-
NORTHERN WYOMING

CITY           SKY/WX    TMP DP  RH WIND       PRES   REMARKS
JACKSON        SUNNY      5   0  78 NE8       30.38R WCI  -8
CODY           FAIR      37  14  38 NW12G23   30.14F WCI  30
GREYBULL       FAIR      23   8  52 SE6       30.25S WCI  16
WORLAND        FAIR      24   6  46 E3        30.24R
SHERIDAN       FAIR      30  14  51 SE5       30.15R WCI  25
BUFFALO          N/A    N/A N/A N/A MISG      30.14R
GILLETTE       PTSUNNY   32  12  43 W14       30.13S WCI  22
NEWCASTLE      NOT AVBL

$$
WYZ014>020-022>026-101>103-051800-
CENTRAL WYOMING

CITY           SKY/WX    TMP DP  RH WIND       PRES   REMARKS
BIG PINEY      FAIR      23   8  52 S3        30.30S
PINEDALE       NOT AVBL
DUBOIS         NOT AVBL
LANDER         FAIR       6   2  83 CALM      30.20R
RIVERTON       FAIR      11   2  67 MISG      30.22S
CASPER         FAIR      22  13  68 SW18      30.20R WCI   7
DOUGLAS        FAIR      26  14  60 N7        30.19R WCI  18

$$
WYZ021-027>030-104>119-051800-
SOUTHERN WYOMING

CITY           SKY/WX    TMP DP  RH WIND       PRES   REMARKS
EVANSTON       FAIR      24  12  60 SW10      30.37R WCI  14
ROCK SPRINGS   FAIR      23  12  62 W30       30.29F WCI   5
RAWLINS        FAIR      22  10  60 SW6G17    30.26R WCI  14
LARAMIE        FAIR      26  10  50 SW18      30.16S WCI  13
CHEYENNE       FAIR      34   9  35 W8        30.17R WCI  27
TORRINGTON     FAIR      32  14  47 NW13      30.20R WCI  22

$$



USA.gov is the U.S. government's official web portal to all federal, state and local government web resources and services.